Overview Statistics Trail Chart Weather Telemetry Raw packets
 

This is the latest recevied weather packets stored in our database for station/object DL2GFH-3. If no packets are shown the sender has not sent any weather packets the latest 10 day(s).

<< 25 26 27 28 29 30 >>
Time Temp. Humidity Pressure Rain* Wind** Luminosity Snow
1776946413 25° C 19% 1023.9 hPa - - - -
1776945508 25° C 19% 1024 hPa - - - -
1776944602 25° C 19% 1024.1 hPa - - - -
1776943697 25.56° C 18% 1024.1 hPa - - - -
1776941886 26.11° C 17% 1024.3 hPa - - - -
1776940981 26.11° C 17% 1024.4 hPa - - - -
1776940075 26.67° C 17% 1024.5 hPa - - - -
1776939170 26.67° C 17% 1024.7 hPa - - - -
1776938264 27.78° C 16% 1024.7 hPa - - - -
1776937359 28.33° C 15% 1024.7 hPa - - - -
1776936453 27.22° C 16% 1024.8 hPa - - - -
1776935548 26.67° C 16% 1024.9 hPa - - - -
1776934643 27.22° C 16% 1025 hPa - - - -
1776933737 27.22° C 16% 1025 hPa - - - -
1776932832 27.22° C 16% 1024.9 hPa - - - -
1776931926 27.78° C 15% 1024.8 hPa - - - -
1776931021 27.22° C 16% 1024.9 hPa - - - -
1776930116 26.67° C 16% 1024.9 hPa - - - -
1776929210 27.78° C 15% 1024.8 hPa - - - -
1776928305 28.89° C 14% 1024.8 hPa - - - -
1776927399 28.33° C 15% 1024.7 hPa - - - -
1776926494 27.78° C 15% 1024.5 hPa - - - -
1776925588 27.78° C 15% 1024.4 hPa - - - -
1776924683 27.22° C 15% 1024.3 hPa - - - -
1776923778 26.67° C 15% 1024.3 hPa - - - -

* Rain since midnight (hover to see other rain measurements)
** Current wind speed in m/s (hover to see current wind gust speed)